Hourly Data Report for October 04, 2014

All times are specified in Local Standard Time (LST). Add 1 hour to adjust for Daylight Saving Time where and when it is observed.

KUGAARUK CLIMATE
NUNAVUT

68°32'15.060" N
89°47'47.020" W
15.80 m
2303094
71407
NBB

Download Data

Hourly Data (October 2014)
Hourly Data Report for October 4, 2014
Temp Definition
°C
Dew Point Temp Definition
°C
Rel Hum Definition
%
Wind Dir Definition
10's deg

Wind Spd Definition
km/h
Visibility Definition
km
Stn Press Definition
kPa
Hmdx Definition


Wind Chill Definition


Weather Definition


TIME
00:00 -6.0 -8.7 81 2 7   101.75   -9 LegendNANA
01:00 -6.0 -8.7 81 10 5   101.75   -8 LegendNANA
02:00 -6.0 -8.4 83 5 8   101.76   -10 LegendNANA
03:00 -6.1 -8.2 85 7 7   101.76   -9 LegendNANA
04:00 -6.3 -8.2 86 11 6   101.78   -9 LegendNANA
05:00 -6.3 -8.3 86 11 7   101.78   -10 LegendNANA
06:00 -6.1 -8.2 86 14 9   101.76   -10 LegendNANA
07:00 -5.8 -7.9 85 21 4   101.75   -8 LegendNANA
08:00 -5.7 -8.0 84 5 2   101.75   -7 LegendNANA
09:00 -5.4 -7.9 82 30 2   101.75   -6 LegendNANA
10:00 -5.2 -8.1 80 36 1   101.75   -6 LegendNANA
11:00 -5.1 -8.3 78 29 4   101.75   -7 LegendNANA
12:00 -4.9 -8.2 78 16 2   101.74   -6 LegendNANA
13:00 -5.1 -7.7 82 9 7   101.75   -8 LegendNANA
14:00 -5.3 -7.8 82 6 7   101.79   -9 LegendNANA
15:00 -5.6 -8.0 83 6 9   101.84   -10 LegendNANA
16:00 -5.8 -8.2 83 5 10   101.85   -10 LegendNANA
17:00 -6.0 -8.6 82 6 7   101.87   -9 LegendNANA
18:00 -6.1 -8.4 84 5 5   101.89   -9 LegendNANA
19:00 -6.1 -8.4 84 4 9   101.91   -10 LegendNANA
20:00 -6.1 -8.4 84 2 6   101.91   -9 LegendNANA
21:00 -6.0 -8.3 84 3 7   101.91   -9 LegendNANA
22:00 -5.8 -8.0 84 3 11   101.90   -11 LegendNANA
23:00 -5.6 -8.1 82 5 15   101.94   -11 LegendNANA

Notes on Data Quality.

Legend

  • E = Estimated
  • M = Missing
  • NA = Not Available
  • ‡ = Partner data that is not subject to review by the National Climate Archives
Date modified: